Weather History for Salt Point, LA

Change the Weather History Date:

Saturday, January 19, 2013

  Actual Average Record
Temperature  
Mean Temperature 63 °F -  
Max Temperature 80 °F 58 °F 80 °F (2013)
Min Temperature 46 °F 43 °F 36 °F (2008)
Degree Days  
Heating Degree Days 2    
Growing Degree Days 13 (Base 50)    
Moisture  
Dew Point 45 °F    
Average Humidity 59    
Maximum Humidity 80    
Minimum Humidity 31    
Precipitation  
Precipitation 0.00 in - - ()
Sea Level Pressure  
Sea Level Pressure 30.30 in    
Wind  
Wind Speed 1 mph (NE)    
Max Wind Speed 6 mph    
Max Gust Speed -    
Averages and records for this station are not official NWS values.
T = Trace of Precipitation, MM = Missing Value Source: NWS Daily Summary

Daily Weather History Graph

Daily Weather History Graph

Search for Another Location

Airport:

Trip Planner

Search our weather history database for the weather conditions in past years. The results will help you decide how hot, cold, wet, or windy it might be!

Date:

Astronomy

Jan. 19, 2013 Rise Set
Actual Time 7:00 AM CST 5:33 PM CST
Civil Twilight 6:35 AM CST 5:58 PM CST
Nautical Twilight 6:06 AM CST 6:27 PM CST
Astronomical Twilight 5:37 AM CST 6:56 PM CST
Moon 11:54 AM CST (1/19) 12:42 AM CST (1/19)
Length of Visible Light 11h 23m
Length of Day
10h 32m
First Quarter, 57% of the Moon is Illuminated
Jan 19
First Quarter
Jan 26
Full
Feb 3
Last Quarter
Feb 10
New
Feb 17
First Quarter

Hourly Weather History & Observations

Time (CST) Temp. Dew Point Humidity Pressure Visibility Wind Dir Wind Speed Gust Speed Precip Events Conditions
12:53 AM 48.0 °F 42.1 °F 80% 30.37 in - Calm Calm - N/A   Unknown
1:53 AM 46.9 °F 41.0 °F 80% 30.36 in - Calm Calm - N/A   Unknown
2:53 AM 46.0 °F 39.9 °F 79% 30.34 in - Calm Calm - N/A   Unknown
3:53 AM 57.0 °F 41.0 °F 55% 30.34 in - North 4.6 mph - N/A   Unknown
4:53 AM 55.9 °F 42.1 °F 60% 30.34 in - NNE 3.5 mph - N/A   Unknown
5:53 AM 59.0 °F 42.1 °F 53% 30.34 in - Variable 3.5 mph - N/A   Unknown
6:53 AM 53.1 °F 42.1 °F 66% 30.33 in - Calm Calm - N/A   Unknown
7:53 AM 57.9 °F 42.1 °F 56% 30.35 in - Calm Calm - N/A   Unknown
8:53 AM 57.0 °F 42.1 °F 57% 30.35 in - Variable 5.8 mph - N/A   Unknown
9:53 AM 62.1 °F 42.1 °F 48% 30.38 in - ENE 4.6 mph - N/A   Unknown
10:53 AM 66.9 °F 43.0 °F 42% 30.35 in - Calm Calm - N/A   Unknown
11:53 AM 75.0 °F 45.0 °F 34% 30.32 in - SE 3.5 mph - N/A   Unknown
12:53 PM 73.0 °F 48.0 °F 41% 30.28 in - Calm Calm - N/A   Unknown
1:53 PM 80.1 °F 46.9 °F 31% 30.26 in - Variable 3.5 mph - N/A   Unknown
2:53 PM 78.1 °F 46.9 °F 33% 30.24 in - Calm Calm - N/A   Unknown
3:53 PM 79.0 °F 48.0 °F 34% 30.24 in - Calm Calm - N/A   Unknown
4:53 PM 70.0 °F 48.0 °F 46% 30.23 in - Calm Calm - N/A   Unknown
5:53 PM 62.1 °F 50.0 °F 65% 30.23 in - Calm Calm - N/A   Unknown
6:53 PM 57.0 °F 48.0 °F 72% 30.24 in - Calm Calm - N/A   Unknown
7:53 PM 55.9 °F 46.9 °F 72% 30.24 in - Calm Calm - N/A   Unknown
8:53 PM 55.0 °F 46.9 °F 74% 30.26 in - Calm Calm - N/A   Unknown
9:53 PM 54.0 °F 46.9 °F 77% 30.27 in - Calm Calm - N/A   Unknown
10:53 PM 55.9 °F 48.0 °F 75% 30.27 in - Calm Calm - N/A   Unknown
11:53 PM 57.0 °F 48.9 °F 74% 30.26 in - NNE 3.5 mph - N/A   Unknown